Weather in Damko'l

Uzbekistan     40°18′48″N   71°48′53″E
temp.,
°C
wind,
m/s
gust,
m/s
humid.,
%
clouds,
%
prec.,
mm/h
press.,
hPa
HPBL,
m
23 october, sat
sat2323:00+5ese1155100 0.0 103617
02:00+6s1152100 0.0 103541
05:00+3nne115949 0.0 103510
08:00+6ene11495 0.0 1035158
11:00+10ne33390 0.0 10331122
14:00+13ne33270 0.0 10291394
17:00+11nne33250 0.0 102847
20:00+7se11310 0.0 102910
24 october, sun
sun2423:00+6se11330 0.0 102810
02:00+5se11350 0.0 102610
05:00+4nw00380 0.0 102510
08:00+8nw00280 0.0 102538
11:00+13n21220 0.0 1021636
14:00+15nne22190 0.0 1018984
17:00+12n22240 0.0 101710
20:00+8sse11290 0.0 101810
25 october, mon
mon2523:00+8ese11300 0.0 101710
02:00+7e11360 0.0 101610
05:00+5ene11450 0.0 101710
08:00+10w11250 0.0 101813
11:00+15nnw21180 0.0 1017590
14:00+18nnw21160 0.0 1015882
17:00+13nnw22240 0.0 101610
20:00+10sse11280 0.0 101610
26 october, tue
tue2623:00+9ese11290 0.0 101711
02:00+8sw00450 0.0 101710
05:00+7sw11472 0.0 101810
08:00+12se0028100 0.0 101911
11:00+17n2118100 0.0 1019545
14:00+19nnw2116100 0.0 1018975
17:00+14nnw112581 0.0 101911
20:00+10ese11291 0.0 102010
27 october, wed
wed2723:00+9se11302 0.0 102010
02:00+8s0031100 0.0 102010
05:00+8sw114087 0.0 102010
08:00+12wsw2225100 0.0 102116
11:00+15wnw4422100 0.0 1022674
14:00+16nw3326100 0.0 10211279
17:00+12n2345100 0.0 102347
20:00+10ese3353100 0.0 102544